Hourly Weather Chakino

Today, 25 June, Friday

Time Temperature Precipitation Wind Pressure Humidity
00:00 +24°C° 0 mm 2 mps 747 mmHg 76%
01:00 +23°C° 0 mm 2 mps 747 mmHg 76%
02:00 +23°C° 0 mm 2 mps 747 mmHg 76%
03:00 +23°C° 0 mm 2 mps 747 mmHg 75%
04:00 +23°C° 0 mm 2 mps 747 mmHg 75%
05:00 +24°C° 0 mm 2 mps 747 mmHg 75%
06:00 +24°C° 0 mm 2 mps 747 mmHg 75%
07:00 +26°C° 0 mm 2 mps 747 mmHg 69%
08:00 +28°C° 0 mm 2 mps 747 mmHg 64%
09:00 +30°C° 0 mm 2 mps 747 mmHg 57%
10:00 +31°C° 0 mm 2 mps 747 mmHg 54%
11:00 +32°C° 0 mm 2 mps 747 mmHg 51%
12:00 +34°C° 0 mm 2 mps 747 mmHg 47%
13:00 +34°C° 0 mm 2 mps 747 mmHg 46%
14:00 +34°C° 0 mm 2 mps 747 mmHg 44%
15:00 +35°C° 0 mm 2 mps 746 mmHg 43%
16:00 +34°C° 0 mm 2 mps 746 mmHg 47%
17:00 +34°C° 0 mm 2 mps 746 mmHg 51%
18:00 +34°C° 0 mm 2 mps 745 mmHg 54%
19:00 +31°C° 0 mm 1 mps 745 mmHg 57%
20:00 +29°C° 0 mm 1 mps 745 mmHg 60%
21:00 +27°C° 0 mm 1 mps 745 mmHg 63%
22:00 +26°C° 0 mm 1 mps 745 mmHg 64%
23:00 +26°C° 0 mm 1 mps 745 mmHg 65%

Tomorrow, 26 June, Saturday

Time Temperature Precipitation Wind Pressure Humidity
00:00 +25°C° 0 mm 1 mps 745 mmHg 66%
01:00 +24°C° 0.1 mm 1 mps 745 mmHg 69%
02:00 +24°C° 0.1 mm 1 mps 745 mmHg 71%
03:00 +23°C° 0.1 mm 1 mps 745 mmHg 73%
04:00 +24°C° 0 mm 1 mps 745 mmHg 73%
05:00 +25°C° 0 mm 1 mps 745 mmHg 73%
06:00 +26°C° 0 mm 1 mps 745 mmHg 73%
07:00 +27°C° 0 mm 1 mps 745 mmHg 68%
08:00 +29°C° 0 mm 1 mps 745 mmHg 63%
09:00 +30°C° 0 mm 1 mps 745 mmHg 58%
10:00 +31°C° 0 mm 1 mps 745 mmHg 54%
11:00 +32°C° 0 mm 1 mps 745 mmHg 51%
12:00 +33°C° 0 mm 1 mps 745 mmHg 47%
13:00 +34°C° 0 mm 1 mps 744 mmHg 44%
14:00 +34°C° 0 mm 1 mps 744 mmHg 41%
15:00 +34°C° 0 mm 1 mps 744 mmHg 39%
16:00 +34°C° 0 mm 1 mps 743 mmHg 42%
17:00 +34°C° 0 mm 1 mps 743 mmHg 46%
18:00 +33°C° 0 mm 1 mps 742 mmHg 50%
19:00 +31°C° 0 mm 2 mps 743 mmHg 56%
20:00 +29°C° 0 mm 2 mps 743 mmHg 61%
21:00 +27°C° 0 mm 2 mps 743 mmHg 67%
22:00 +25°C° 0.1 mm 2 mps 743 mmHg 73%
23:00 +24°C° 0.1 mm 3 mps 743 mmHg 79%

Day after tomorrow, 27 June, Sunday

Time Temperature Precipitation Wind Pressure Humidity
00:00 +22°C° 0.1 mm 3 mps 743 mmHg 86%
01:00 +21°C° 0 mm 3 mps 743 mmHg 86%
02:00 +21°C° 0 mm 2 mps 743 mmHg 86%
03:00 +20°C° 0 mm 2 mps 743 mmHg 86%
04:00 +21°C° 0 mm 2 mps 743 mmHg 84%
05:00 +23°C° 0 mm 2 mps 743 mmHg 82%
06:00 +24°C° 0 mm 2 mps 743 mmHg 81%
07:00 +25°C° 0 mm 2 mps 743 mmHg 74%
08:00 +27°C° 0 mm 2 mps 743 mmHg 68%
09:00 +29°C° 0 mm 2 mps 743 mmHg 62%
10:00 +30°C° 0 mm 2 mps 743 mmHg 58%
11:00 +32°C° 0 mm 2 mps 743 mmHg 54%
12:00 +34°C° 0 mm 2 mps 743 mmHg 49%
13:00 +34°C° 0 mm 3 mps 743 mmHg 48%
14:00 +35°C° 0 mm 3 mps 743 mmHg 46%
15:00 +35°C° 0 mm 3 mps 743 mmHg 44%
16:00 +34°C° 0 mm 3 mps 742 mmHg 49%
17:00 +34°C° 0 mm 3 mps 742 mmHg 54%
18:00 +33°C° 0 mm 3 mps 742 mmHg 59%
19:00 +30°C° 0 mm 3 mps 742 mmHg 63%
20:00 +29°C° 0 mm 3 mps 741 mmHg 67%
21:00 +27°C° 0 mm 4 mps 741 mmHg 71%
22:00 +27°C° 0 mm 4 mps 741 mmHg 72%
23:00 +26°C° 0 mm 4 mps 741 mmHg 74%

28 June, Monday

Time Temperature Precipitation Wind Pressure Humidity
00:00 +25°C° 0 mm 4 mps 741 mmHg 76%
01:00 +25°C° 0 mm 4 mps 741 mmHg 75%
02:00 +25°C° 0 mm 4 mps 741 mmHg 74%
03:00 +25°C° 0 mm 4 mps 741 mmHg 73%
04:00 +25°C° 0 mm 4 mps 741 mmHg 75%
05:00 +25°C° 0 mm 4 mps 741 mmHg 76%
06:00 +25°C° 0 mm 5 mps 741 mmHg 78%
07:00 +26°C° 0 mm 5 mps 741 mmHg 70%
08:00 +28°C° 0 mm 5 mps 741 mmHg 63%
09:00 +30°C° 0 mm 4 mps 741 mmHg 55%
10:00 +32°C° 0 mm 4 mps 741 mmHg 51%
11:00 +33°C° 0 mm 4 mps 741 mmHg 48%
12:00 +34°C° 0 mm 4 mps 741 mmHg 45%
13:00 +34°C° 0 mm 4 mps 741 mmHg 46%
14:00 +34°C° 0 mm 5 mps 740 mmHg 47%
15:00 +34°C° 0 mm 6 mps 740 mmHg 48%
16:00 +33°C° 0 mm 6 mps 740 mmHg 52%
17:00 +32°C° 0 mm 7 mps 739 mmHg 56%
18:00 +30°C° 0 mm 7 mps 739 mmHg 61%
19:00 +27°C° 0.5 mm 5 mps 739 mmHg 67%
20:00 +24°C° 0.5 mm 3 mps 739 mmHg 74%
21:00 +21°C° 0.5 mm 1 mps 739 mmHg 81%
22:00 +21°C° 0.6 mm 1 mps 739 mmHg 85%
23:00 +19°C° 0.6 mm 2 mps 739 mmHg 88%

29 June, Tuesday

Time Temperature Precipitation Wind Pressure Humidity
00:00 +19°C° 0.6 mm 3 mps 738 mmHg 92%
01:00 +19°C° 0 mm 3 mps 738 mmHg 93%
02:00 +19°C° 0 mm 3 mps 738 mmHg 94%
03:00 +19°C° 0 mm 3 mps 738 mmHg 95%
04:00 +19°C° 0 mm 3 mps 738 mmHg 95%
05:00 +20°C° 0 mm 4 mps 738 mmHg 95%
06:00 +20°C° 0 mm 4 mps 738 mmHg 94%
07:00 +20°C° 0 mm 5 mps 739 mmHg 91%
08:00 +20°C° 0 mm 5 mps 739 mmHg 88%
09:00 +20°C° 0 mm 5 mps 740 mmHg 85%
10:00 +21°C° 0 mm 5 mps 740 mmHg 78%
11:00 +22°C° 0 mm 5 mps 740 mmHg 72%
12:00 +23°C° 0 mm 6 mps 741 mmHg 65%
13:00 +25°C° 0 mm 5 mps 741 mmHg 61%
14:00 +26°C° 0 mm 5 mps 741 mmHg 57%
15:00 +27°C° 0 mm 5 mps 741 mmHg 53%
16:00 +27°C° 0 mm 4 mps 741 mmHg 55%
17:00 +27°C° 0 mm 4 mps 741 mmHg 57%
18:00 +26°C° 0 mm 3 mps 741 mmHg 59%
19:00 +25°C° 0 mm 3 mps 741 mmHg 64%
20:00 +22°C° 0 mm 3 mps 741 mmHg 69%
21:00 +21°C° 0 mm 2 mps 741 mmHg 73%
22:00 +20°C° 0 mm 2 mps 741 mmHg 75%
23:00 +20°C° 0 mm 2 mps 741 mmHg 77%

30 June, Wednesday

Time Temperature Precipitation Wind Pressure Humidity
00:00 +19°C° 0 mm 2 mps 741 mmHg 79%
01:00 +18°C° 0 mm 2 mps 741 mmHg 81%
02:00 +18°C° 0 mm 2 mps 742 mmHg 84%
03:00 +17°C° 0 mm 2 mps 742 mmHg 86%
04:00 +18°C° 0 mm 2 mps 742 mmHg 84%
05:00 +19°C° 0 mm 2 mps 742 mmHg 82%
06:00 +20°C° 0 mm 2 mps 742 mmHg 80%
07:00 +21°C° 0.2 mm 3 mps 742 mmHg 76%
08:00 +22°C° 0.2 mm 3 mps 742 mmHg 73%
09:00 +25°C° 0.2 mm 4 mps 742 mmHg 69%
10:00 +26°C° 0.4 mm 5 mps 742 mmHg 64%
11:00 +27°C° 0.4 mm 5 mps 742 mmHg 59%
12:00 +28°C° 0.4 mm 5 mps 742 mmHg 53%
13:00 +28°C° 0 mm 5 mps 742 mmHg 52%
14:00 +28°C° 0 mm 5 mps 742 mmHg 50%
15:00 +28°C° 0 mm 5 mps 742 mmHg 48%
16:00 +27°C° 0 mm 4 mps 742 mmHg 52%
17:00 +26°C° 0 mm 3 mps 742 mmHg 56%
18:00 +26°C° 0 mm 3 mps 742 mmHg 61%
19:00 +24°C° 0 mm 2 mps 742 mmHg 64%
20:00 +23°C° 0 mm 2 mps 742 mmHg 67%
21:00 +21°C° 0 mm 2 mps 742 mmHg 70%
22:00 +20°C° 0 mm 2 mps 742 mmHg 74%
23:00 +20°C° 0 mm 2 mps 742 mmHg 77%
Show more

We Need Your Consent

Meteoprog and our Service Providers may store and access personal data such as cookies, device identifiers or other similar technologies on your device and process such data to personalise content and ads, as well as provide social media features and to analyse the traffic.

  • Store and/or access information on your device

    Cookies, device identifiers or other information can be stored or accessed on your device for the purposes indicated above.

  • Personalised ads and content, ad and content measurement, audience insights, and products development

    Ads and content can be personalised based on a profile. More data can be added to better personalise ads and content. Ad and content performance can be measured. Insights about the audience who saw the ads and content can be derived. Such data can be used to develop or improve user’s experience, systems and software.

By clicking ‘I Agree’ you will allow the use of indicated cookies, device identifiers, web beacons or other similar technologies. Your settings can be changed in the browser on your device.

For certain purposes, legitimate interests may be relied on, rather than consent. You can read more about this in our Privacy and Cookie Policy.